Tracking 28794 objects as of 19-Apr-2024
HD Live streaming from Space Station
objects crossing your sky now

THORAD AGENA D DEB

Track THORAD AGENA D DEB now!
10-day predictions


NORAD ID: 5185
Int'l Code: 1970-025KB
Perigee: 876.8 km
Apogee: 977.9 km
Inclination: 99.7 °
Period: 103.4 minutes
Semi major axis: 7298 km
RCS: 0.0208 m2 (small)
Launch date: April 8, 1970
Source: United States (US)
Launch site: AIR FORCE WESTERN TEST RANGE (AFWTR)

Note: This is SATELLITE DEBRIS
Your satellite tracking list
Your tracking list is empty




NASA's NSSDC Master Catalog

Two Line Element Set (TLE):
1 05185U 70025KB  24110.28390102  .00005037  00000-0  38755-2 0  9991
2 05185  99.6764 135.2703 0069233 181.7047 178.3885 13.92400645691813
Source of the keplerian elements: AFSPC